AirNav   Pilot Hours Calculator
 
 592 users online  

27LL Sullivan Field Airport
Valmeyer, Illinois, USA

GOING TO VALMEYER?


FAA INFORMATION EFFECTIVE 31 JANUARY 2019

Location

FAA Identifier: 27LL
Lat/Long: 38-22-30.1930N / 090-19-09.4220W
38-22.503217N / 090-19.157033W
38.3750536 / -90.3192839
(estimated)
Elevation: 400 ft. / 122 m (estimated)
Variation: 02E (1985)
From city: 4 miles N of VALMEYER, IL
Time zone: UTC -6 (UTC -5 during Daylight Saving Time)
Zip code: 62295

Airport Operations

Airport use: Private use. Permission required prior to landing
Activation date: 11/1977
Control tower: no
ARTCC: KANSAS CITY CENTER
FSS: COLUMBIA FLIGHT SERVICE STATION
Attendance: DAYLIGHT HOURS
Wind indicator: yes
Segmented circle: no

Airport Communications

WX ASOS at CPS (14 nm NE): PHONE 618-332-0001

Nearby radio navigation aids

VOR radial/distance  VOR name  Freq  Var
CSXr175/22.7CARDINAL VOR/DME116.4500E
TOYr217/28.8TROY VORTAC116.0004E
STLr164/30.1ST LOUIS VORTAC117.4001E
FTZr117/36.1FORISTELL VORTAC110.8005E

 
NDB name  Hdg/Dist  Freq  Var  ID
ACORE235/15.035000ECP -.-. .--.
CIVIC MEMORIAL203/33.426301WCVM -.-. ...- --

Airport Services

Runway Information

Runway 9/27

Dimensions: 1800 x 80 ft. / 549 x 24 m
Surface: turf
RUNWAY 9  RUNWAY 27
Traffic pattern: leftleft

Airport Ownership and Management from official FAA records

Ownership: Privately-owned
Owner: SULLIVAN FIELD
3223 CEDAR RIDGE LN
WATERLOO, IL 62298
Phone 618-939-4142
Manager: SULLIVAN FIELD INC (MIKE MERKAN)
8000 B ROAD
WATERLOO, IL 62298
Phone 618-939-4142

Airport Operational Statistics

Aircraft based on the field: 20
Single engine airplanes: 20
    

Additional Remarks

FOR CD CTC ST LOUIS APCH AT 314-890-1018.

Instrument Procedures

There are no published instrument procedures at 27LL.

Some nearby airports with instrument procedures:

KFES - Festus Memorial Airport (11 nm S)
KCPS - St Louis Downtown Airport (14 nm NE)
KSTL - St Louis Lambert International Airport (23 nm N)
1H0 - Creve Coeur Airport (23 nm NW)
KSUS - Spirit of St Louis Airport (23 nm NW)
 
Loc | Ops | Rwys | IFR | FBO | Links
Com | Nav | Svcs | Stats | Notes
Area around 27LL (Sullivan Field Airport)
 
Road maps at: MapQuest Bing Google
 
Aerial photo
WARNING: Photo may not be current or correct
Aerial photo of 27LL (Sullivan Field Airport)
Do you have a better or more recent aerial photo of Sullivan Field Airport that you would like to share? If so, please send us your photo.

 
Sectional chart

 
Airport distance calculator
Flying to Sullivan Field Airport? Find the distance to fly.

From to 27LL

Sunrise and sunset
Times for 21-Feb-2019
 Local
(UTC-6)
 Zulu
(UTC)
Morning civil twilight06:1812:18
Sunrise06:4512:45
Sunset17:4523:45
Evening civil twilight18:1100:11

Current date and time
Zulu (UTC)  22-Feb-2019 05:30:38
Local (UTC-6)  21-Feb-2019 23:30:38
 
METAR
KCPS 
14nm NE 
220453Z AUTO 06004KT 10SM CLR 02/M03 A3027 RMK AO2 SLP254 T00171028
KSTL 
23nm N 
220451Z 10007KT 10SM OVC210 02/M03 A3027 RMK AO2 SLP260 T00171028 $
KSUS 
23nm NW 
220454Z 00000KT 10SM CLR 01/M02 A3027 RMK AO2 SLP258 T00111022
KBLV 
25nm NE 
220456Z AUTO 03004KT 10SM BKN210 02/M02 A3027 RMK AO2 SLP257 T00191022 $
TAF
KCPS 
14nm NE 
211727Z 2118/2218 VRB04KT P6SM SCT150 FM212100 06005KT P6SM BKN120 FM221300 09006KT P6SM OVC050
NOTAMs
Click for the latest NOTAMs
NOTAMs are issued by the DoD/FAA and will open in a separate window not controlled by AirNav.

 

 
 

Would you like to see your business listed on this page?

 If your business provides an interesting product or service to pilots, flight crews, aircraft, or users of the Sullivan Field Airport, you should consider listing it here.  To start the listing process, click on the button below
 
Add a business
 

Other Pages about Sullivan Field Airport

Update a link
 
Copyright © AirNav, LLC. All rights reserved. Privacy Policy  Contact